EW5849 Buccheri IT current weather conditions

sailwx.info

Wind from 139 at 4 knots gusting 8

Air temperature 6.7° C
Dewpoint 6.5° C

Last reported at 2020-Jan-22 14:00 UTC.
Time now 2020-Jan-22 15:10 UTC

Location: N 37°07' E 014°51'.
View on Google Maps.

See reports from other nearby stations

  
Tides and Currents Weather Stations Pressure Air Temp Water Temp Dewpoint Dewpoint Depression Visibility Wind Speed Wind Dir Waves Ship Positions
date/time (UTC)wind fromknots sea level pressurealtimeterstation pressurevisibilityair tempwater tempwave heightnotes
2020-Jan-22 14:00 139 4 gusting 8 6.7
2020-Jan-22 13:55 144 5 gusting 6 6.7
2020-Jan-22 13:50 150 5 gusting 7 6.7
2020-Jan-22 13:45 153 5 gusting 6 6.7
2020-Jan-22 13:40 136 5 gusting 6 6.7
2020-Jan-22 13:35 120 6 gusting 6 6.7
2020-Jan-22 13:30 124 6 gusting 7 6.7
2020-Jan-22 13:25 128 6 gusting 6 6.7
2020-Jan-22 13:20 132 6 gusting 12 6.7
2020-Jan-22 13:15 129 7 gusting 12 6.7
2020-Jan-22 13:10 113 8 gusting 11 6.7
2020-Jan-22 13:05 111 8 gusting 13 6.7
2020-Jan-22 13:00 114 8 gusting 13 6.7
2020-Jan-22 12:55 116 8 gusting 12 6.7
2020-Jan-22 12:50 114 8 gusting 13 6.7
2020-Jan-22 12:45 115 7 gusting 12 6.7
2020-Jan-22 12:40 109 6 gusting 11 6.7
2020-Jan-22 12:35 120 5 gusting 10 6.7
2020-Jan-22 12:30 129 4 gusting 7 6.7
2020-Jan-22 12:25 116 5 gusting 6 6.7
2020-Jan-22 12:20 126 6 gusting 6 6.7
2020-Jan-22 12:15 164 6 gusting 7 6.7
2020-Jan-22 12:10 131 6 gusting 7 6.7
2020-Jan-22 12:05 145 6 gusting 10 6.7
2020-Jan-22 12:00 148 6 gusting 10 6.7
2020-Jan-22 11:55 113 6 gusting 11 6.7
2020-Jan-22 11:50 110 7 gusting 10 6.7
2020-Jan-22 11:45 130 6 gusting 10 6.7
2020-Jan-22 11:40 117 6 gusting 13 6.7
2020-Jan-22 11:35 122 6 gusting 10 6.7
2020-Jan-22 11:30 112 7 gusting 7 6.7
2020-Jan-22 11:25 114 8 gusting 12 6.7
2020-Jan-22 11:20 140 8 gusting 13 6.7
2020-Jan-22 11:15 127 8 gusting 13 6.7
2020-Jan-22 11:10 121 8 gusting 13 6.7
2020-Jan-22 11:05 111 8 gusting 12 6.7
2020-Jan-22 11:00 119 8 gusting 12 6.7
2020-Jan-22 10:55 121 8 gusting 13 6.7
2020-Jan-22 10:50 119 8 gusting 13 6.7
2020-Jan-22 10:45 110 8 gusting 13 6.7
2020-Jan-22 10:40 113 7 gusting 13 6.7
2020-Jan-22 10:35 121 7 gusting 11 6.7
2020-Jan-22 10:30 111 7 gusting 12 6.7
2020-Jan-22 10:25 110 7 gusting 12 6.7
2020-Jan-22 10:20 116 7 gusting 13 6.7
2020-Jan-22 10:15 116 7 gusting 13 6.7
2020-Jan-22 10:10 110 6 gusting 13 6.7
2020-Jan-22 10:05 111 6 gusting 12 6.7
2020-Jan-22 10:00 108 6 gusting 13 6.7
2020-Jan-22 09:55 101 7 gusting 10 6.7
2020-Jan-22 09:50 112 8 gusting 10 6.7
2020-Jan-22 09:45 104 8 gusting 13 6.7
2020-Jan-22 09:40 107 10 gusting 14 6.7
2020-Jan-22 09:35 106 8 gusting 14 6.7
2020-Jan-22 09:30 103 7 gusting 13 6.7
2020-Jan-22 09:25 109 8 gusting 13 6.7
2020-Jan-22 09:20 101 8 gusting 11 6.7
2020-Jan-22 09:15 101 7 gusting 14 6.7
2020-Jan-22 09:10 105 6 gusting 13 6.7
2020-Jan-22 09:05 095 6 gusting 13 6.7
2020-Jan-22 09:00 090 6 gusting 12 6.7
2020-Jan-22 08:55 106 7 gusting 11 6.7
2020-Jan-22 08:50 097 8 gusting 13 6.7
2020-Jan-22 08:45 095 8 gusting 13 6.7
2020-Jan-22 08:40 105 8 gusting 13 6.7
2020-Jan-22 08:35 098 8 gusting 14 6.7
2020-Jan-22 08:30 094 8 gusting 14 6.7
2020-Jan-22 08:25 105 8 gusting 13 6.7
2020-Jan-22 08:20 118 8 gusting 14 6.7
2020-Jan-22 08:15 106 9 gusting 14 6.7
2020-Jan-22 08:10 103 10 gusting 13 6.7
2020-Jan-22 08:05 084 10 gusting 15 6.7
2020-Jan-22 08:00 094 10 gusting 15 6.7
2020-Jan-22 07:55 108 10 gusting 14 6.7
2020-Jan-22 07:50 102 10 gusting 14 6.7
2020-Jan-22 07:45 106 8 gusting 15 6.7
2020-Jan-22 07:40 097 8 gusting 14 6.7
2020-Jan-22 07:35 098 8 gusting 14 6.7
2020-Jan-22 07:30 095 8 gusting 14 6.7
2020-Jan-22 07:25 096 9 gusting 14 6.7
2020-Jan-22 07:20 088 10 gusting 14 6.7
2020-Jan-22 07:15 098 10 gusting 15 6.7
2020-Jan-22 07:10 104 11 gusting 15 6.7
2020-Jan-22 07:05 100 10 gusting 17 6.7
2020-Jan-22 07:00 104 10 gusting 18 6.7
2020-Jan-22 06:55 092 9 gusting 18 6.7
2020-Jan-22 06:50 100 8 gusting 17 6.7
2020-Jan-22 06:45 099 8 gusting 13 6.7
2020-Jan-22 06:40 099 8 gusting 15 6.7
2020-Jan-22 06:35 111 8 gusting 15 6.7
2020-Jan-22 06:30 101 8 gusting 14 6.7
2020-Jan-22 06:25 098 10 gusting 13 6.7
2020-Jan-22 06:20 090 10 gusting 13 6.7
2020-Jan-22 06:15 086 10 gusting 14 6.7
2020-Jan-22 06:10 098 11 gusting 15 6.7
2020-Jan-22 06:05 086 10 gusting 15 6.7
2020-Jan-22 06:00 097 10 gusting 14 6.7
2020-Jan-22 05:55 096 10 gusting 15 6.7
2020-Jan-22 05:50 100 10 gusting 15 6.7
2020-Jan-22 05:45 093 8 gusting 18 6.7
2020-Jan-22 05:40 088 8 gusting 18 6.7
2020-Jan-22 05:35 102 8 gusting 14 6.7
2020-Jan-22 05:30 085 8 gusting 13 6.7
2020-Jan-22 05:25 088 8 gusting 13 6.7
2020-Jan-22 05:20 087 8 gusting 13 6.7
2020-Jan-22 05:15 084 7 gusting 13 6.7
2020-Jan-22 05:10 091 7 gusting 13 6.7
2020-Jan-22 05:05 092 7 gusting 13 6.7
2020-Jan-22 05:00 089 8 gusting 11 6.7
2020-Jan-22 04:55 100 8 gusting 13 6.7
2020-Jan-22 04:50 101 8 gusting 14 6.7
2020-Jan-22 04:45 096 8 gusting 13 6.7
2020-Jan-22 04:40 097 7 gusting 13 6.7
2020-Jan-22 04:35 093 9 gusting 12 6.7
2020-Jan-22 04:30 098 10 gusting 13 6.7
2020-Jan-22 04:25 093 9 gusting 13 6.7
2020-Jan-22 04:20 094 8 gusting 13 6.7
2020-Jan-22 04:15 095 8 gusting 14 6.7
2020-Jan-22 04:10 090 8 gusting 15 6.7
2020-Jan-22 04:05 104 8 gusting 13 6.7
2020-Jan-22 04:00 106 8 gusting 13 6.7
2020-Jan-22 03:55 093 10 gusting 10 6.7
2020-Jan-22 03:50 103 10 gusting 13 6.7
2020-Jan-22 03:45 104 11 gusting 17 6.7
2020-Jan-22 03:40 100 11 gusting 17 6.7
2020-Jan-22 03:35 114 10 gusting 19 6.7
2020-Jan-22 03:30 112 10 gusting 17 6.7
2020-Jan-22 03:25 099 11 gusting 17 6.7
2020-Jan-22 03:20 102 13 gusting 17 6.7
2020-Jan-22 03:15 100 12 gusting 15 6.7
2020-Jan-22 03:10 111 12 gusting 18 6.7
2020-Jan-22 03:05 106 12 gusting 18 6.7
2020-Jan-22 03:00 110 12 gusting 21 6.7
2020-Jan-22 02:55 107 13 gusting 17 6.7
2020-Jan-22 02:50 109 13 gusting 19 6.7
2020-Jan-22 02:45 110 12 gusting 20 6.7
2020-Jan-22 02:40 106 12 gusting 20 6.7
2020-Jan-22 02:35 108 12 gusting 20 6.7
2020-Jan-22 02:30 109 12 gusting 19 6.7
2020-Jan-22 02:25 110 11 gusting 17 6.7
2020-Jan-22 02:21 112 11 gusting 15 6.7
2020-Jan-22 02:00 104 12 gusting 18 6.7
2020-Jan-22 01:55 092 11 gusting 21 6.7
2020-Jan-22 01:50 099 11 gusting 21 6.7
2020-Jan-22 01:45 103 11 gusting 15 6.7
2020-Jan-22 01:40 098 11 gusting 18 6.7
2020-Jan-22 01:35 106 11 gusting 17 6.7
2020-Jan-22 01:30 092 11 gusting 18 6.7
2020-Jan-22 01:25 101 9 gusting 18 6.7
2020-Jan-22 01:20 101 7 gusting 19 6.7
2020-Jan-22 01:15 095 10 gusting 13 6.7
2020-Jan-22 01:10 104 11 gusting 12 6.7
2020-Jan-22 01:05 099 11 gusting 14 6.7
2020-Jan-22 01:00 108 12 gusting 14 6.7
2020-Jan-22 00:55 111 12 gusting 18 6.7
2020-Jan-22 00:50 112 12 gusting 18 6.7
2020-Jan-22 00:45 111 11 gusting 17 6.7
2020-Jan-22 00:40 115 11 gusting 19 6.7
2020-Jan-22 00:35 108 10 gusting 14 6.7
2020-Jan-22 00:30 105 10 gusting 13 6.7
2020-Jan-22 00:25 104 11 gusting 15 6.7
2020-Jan-22 00:20 116 12 gusting 15 6.7
2020-Jan-22 00:15 119 12 gusting 15 6.7
2020-Jan-22 00:10 119 13 gusting 21 6.7
2020-Jan-22 00:05 118 12 gusting 27 6.7
2020-Jan-22 00:00 118 11 gusting 27 6.7
2020-Jan-21 23:55 124 11 gusting 13 6.7
2020-Jan-21 23:50 124 11 gusting 19 6.7
2020-Jan-21 23:45 128 10 gusting 19 6.7
2020-Jan-21 23:40 122 10 gusting 14 6.7
2020-Jan-21 23:35 145 8 gusting 14 7.2
2020-Jan-21 23:30 120 7 gusting 14 7.2
2020-Jan-21 23:25 116 8 gusting 13 7.2
2020-Jan-21 23:20 121 8 gusting 12 6.7
2020-Jan-21 23:15 123 10 gusting 17 6.7
2020-Jan-21 23:10 097 10 gusting 13 6.7
2020-Jan-21 23:05 105 11 gusting 13 6.7
2020-Jan-21 23:00 093 11 gusting 13 6.7
2020-Jan-21 22:55 094 11 gusting 14 6.7
2020-Jan-21 22:50 100 10 gusting 19 6.7
2020-Jan-21 22:45 086 10 gusting 14 6.7
2020-Jan-21 22:40 094 10 gusting 19 6.7
2020-Jan-21 22:35 092 8 gusting 15 6.7
2020-Jan-21 22:25 102 10 gusting 17 6.7
2020-Jan-21 22:20 098 11 gusting 12 6.7
2020-Jan-21 22:15 102 10 gusting 14 6.7
2020-Jan-21 22:10 102 10 gusting 17 6.7
2020-Jan-21 22:05 100 11 gusting 17 6.7
2020-Jan-21 22:00 099 11 gusting 15 6.7
2020-Jan-21 21:55 106 11 gusting 17 6.7
2020-Jan-21 21:50 113 12 gusting 17 6.7
2020-Jan-21 21:45 103 11 gusting 14 6.7
2020-Jan-21 21:40 108 11 gusting 17 6.7
2020-Jan-21 21:35 098 12 gusting 17 6.7
2020-Jan-21 21:30 105 13 gusting 17 6.7
2020-Jan-21 21:25 104 13 gusting 20 6.7
2020-Jan-21 21:20 111 13 gusting 15 6.7
2020-Jan-21 21:15 109 12 gusting 19 6.7
2020-Jan-21 21:10 112 12 gusting 20 6.7
2020-Jan-21 21:05 107 12 gusting 19 6.7
2020-Jan-21 21:00 110 13 gusting 15 6.7
2020-Jan-21 20:55 109 12 gusting 18 6.7
2020-Jan-21 20:50 107 12 gusting 19 6.7
2020-Jan-21 20:45 110 13 gusting 18 6.7
2020-Jan-21 20:40 106 13 gusting 19 6.7
2020-Jan-21 20:35 107 13 gusting 20 6.7
2020-Jan-21 20:30 105 13 gusting 19 6.7
2020-Jan-21 20:25 109 13 gusting 18 6.7
2020-Jan-21 20:20 110 13 gusting 20 6.7
2020-Jan-21 20:15 107 14 gusting 18 6.7
2020-Jan-21 20:10 103 14 gusting 19 6.7
2020-Jan-21 20:05 106 15 gusting 19 6.7
2020-Jan-21 20:00 110 15 gusting 19 6.7
2020-Jan-21 19:55 113 15 gusting 22 6.7
2020-Jan-21 19:50 103 15 gusting 22 6.7
2020-Jan-21 19:45 107 14 gusting 27 6.7
2020-Jan-21 19:40 112 13 gusting 27 7.2
2020-Jan-21 19:35 115 13 gusting 21 6.7
2020-Jan-21 19:30 105 13 gusting 18 6.7
2020-Jan-21 19:25 112 16 gusting 19 6.7
2020-Jan-21 19:20 109 19 gusting 19 6.7
2020-Jan-21 19:15 102 17 gusting 24 6.7
2020-Jan-21 19:10 106 17 gusting 26 6.7
2020-Jan-21 19:05 106 18 gusting 26 6.7
2020-Jan-21 19:00 102 19 gusting 25 6.7
2020-Jan-21 18:55 106 19 gusting 25 6.7
2020-Jan-21 18:50 106 19 gusting 27 6.7
2020-Jan-21 18:45 107 17 gusting 32 6.7
2020-Jan-21 18:40 111 15 gusting 32 6.7
2020-Jan-21 18:35 102 13 gusting 22 7.2
2020-Jan-21 18:30 108 12 gusting 27 6.7
2020-Jan-21 18:25 102 13 gusting 17 6.7
2020-Jan-21 18:20 111 13 gusting 15 6.7
2020-Jan-21 18:15 104 15 gusting 19 6.7
2020-Jan-21 18:10 095 17 gusting 19 6.7
2020-Jan-21 18:05 096 15 gusting 20 7.2
2020-Jan-21 18:00 105 15 gusting 26 7.2
2020-Jan-21 17:55 097 15 gusting 25 7.2
2020-Jan-21 17:50 102 15 gusting 25 7.2
2020-Jan-21 17:45 096 13 gusting 25 7.2
2020-Jan-21 17:40 101 13 gusting 25 7.2
2020-Jan-21 17:35 101 13 gusting 25 7.2
2020-Jan-21 17:31 092 13 gusting 17 7.2
2020-Jan-21 17:25 095 13 gusting 19 7.2
2020-Jan-21 17:20 096 14 gusting 22 7.2
2020-Jan-21 17:15 106 13 gusting 25 7.2
2020-Jan-21 17:10 103 13 gusting 21 7.2
2020-Jan-21 17:05 096 14 gusting 21 7.2
2020-Jan-21 16:55 087 13 gusting 24 7.2
2020-Jan-21 16:50 090 12 gusting 21 6.7
2020-Jan-21 16:45 076 12 gusting 21 6.7
2020-Jan-21 16:40 085 12 gusting 15 6.7
2020-Jan-21 16:35 079 11 gusting 19 6.7
2020-Jan-21 16:25 081 12 gusting 19 6.7
2020-Jan-21 16:20 095 13 gusting 19 6.7
2020-Jan-21 16:15 086 13 gusting 19 6.7
2020-Jan-21 16:10 089 13 gusting 19 6.7
2020-Jan-21 16:05 090 13 gusting 19 6.7
2020-Jan-21 15:55 096 13 gusting 21 7.2
2020-Jan-21 15:50 102 13 gusting 17 7.2
2020-Jan-21 15:45 103 13 gusting 17 7.2
2020-Jan-21 15:40 102 13 gusting 21 7.2
2020-Jan-21 15:35 085 13 gusting 21 7.2
2020-Jan-21 15:30 088 13 gusting 19 7.2
2020-Jan-21 15:25 098 14 gusting 20 7.2
2020-Jan-21 15:20 089 14 gusting 21 7.2
2020-Jan-21 15:10 116 15 gusting 26 7.2
2020-Jan-21 15:05 120 14 gusting 25 7.2
2020-Jan-21 15:00 117 13 gusting 25 7.2
2020-Jan-21 14:55 125 13 gusting 25 7.2
2020-Jan-21 14:50 117 13 gusting 20 7.2
2020-Jan-21 14:45 107 11 gusting 19 7.2
2020-Jan-21 14:40 115 10 gusting 20 7.2
2020-Jan-21 14:35 115 11 gusting 19 7.8
2020-Jan-21 14:30 114 12 gusting 13 7.8
2020-Jan-21 14:25 113 11 gusting 15 7.8
2020-Jan-21 14:20 113 11 gusting 18 7.8
2020-Jan-21 14:10 114 10 gusting 15 7.8
2020-Jan-21 14:05 111 10 gusting 15 7.8
2020-Jan-21 14:00 115 11 gusting 13 7.8
2020-Jan-21 13:55 116 12 gusting 13 7.8
2020-Jan-21 13:50 122 13 gusting 15 7.8
2020-Jan-21 13:45 115 12 gusting 15 7.8
2020-Jan-21 13:40 118 12 gusting 17 7.8
2020-Jan-21 13:35 132 13 gusting 17 7.8
2020-Jan-21 13:30 123 13 gusting 18 7.8
2020-Jan-21 13:25 140 12 gusting 18 7.8
2020-Jan-21 13:20 131 12 gusting 19 7.8
2020-Jan-21 13:15 133 12 gusting 19 7.8
2020-Jan-21 13:10 124 13 gusting 17 7.8
2020-Jan-21 13:05 124 13 gusting 15 7.8
2020-Jan-21 13:00 121 13 gusting 18 7.8
2020-Jan-21 12:55 118 13 gusting 19 7.8
2020-Jan-21 12:50 116 13 gusting 19 7.8
2020-Jan-21 12:45 118 13 gusting 24 7.8
2020-Jan-21 12:40 114 13 gusting 24 7.8
2020-Jan-21 12:35 110 12 gusting 20 7.8
2020-Jan-21 12:30 112 11 gusting 18 8.3
2020-Jan-21 12:25 127 12 gusting 18 8.3
2020-Jan-21 12:20 121 13 gusting 15 8.3
2020-Jan-21 12:15 123 13 gusting 15 7.8
2020-Jan-21 12:10 122 14 gusting 20 7.8
2020-Jan-21 12:05 119 14 gusting 20 7.8
2020-Jan-21 11:55 122 14 gusting 24 7.8
2020-Jan-21 11:50 119 13 gusting 19 7.8
2020-Jan-21 11:45 118 14 gusting 19 7.8
2020-Jan-21 11:40 126 14 gusting 22 7.8
2020-Jan-21 11:35 119 14 gusting 22 7.8
2020-Jan-21 11:30 114 13 gusting 20 7.8
2020-Jan-21 11:25 122 13 gusting 21 7.8
2020-Jan-21 11:20 119 13 gusting 21 7.8
2020-Jan-21 11:15 121 13 gusting 19 7.8
2020-Jan-21 11:10 118 14 gusting 19 7.8
2020-Jan-21 11:05 117 13 gusting 19 7.8
2020-Jan-21 11:00 123 13 gusting 19 7.8
2020-Jan-21 10:55 116 14 gusting 24 7.8
2020-Jan-21 10:50 122 14 gusting 19 7.8
2020-Jan-21 10:45 126 14 gusting 19 7.8
2020-Jan-21 10:40 121 14 gusting 24 7.8
2020-Jan-21 10:35 118 13 gusting 24 7.8
2020-Jan-21 10:30 128 13 gusting 24 7.8
2020-Jan-21 10:25 125 14 gusting 24 7.8
2020-Jan-21 10:20 120 14 gusting 22 7.8
2020-Jan-21 10:15 121 16 gusting 26 7.8
2020-Jan-21 10:10 119 17 gusting 19 7.8
2020-Jan-21 10:05 128 18 gusting 25 7.8
2020-Jan-21 10:00 117 19 gusting 25 7.8
2020-Jan-21 09:55 122 17 gusting 28 7.8
2020-Jan-21 09:50 124 17 gusting 26 7.8
2020-Jan-21 09:45 115 17 gusting 26 7.8
2020-Jan-21 09:40 123 18 gusting 26 7.8
2020-Jan-21 09:35 118 17 gusting 30 7.8
2020-Jan-21 09:30 125 17 gusting 26 7.8
2020-Jan-21 09:25 125 19 gusting 26 7.8
2020-Jan-21 09:20 123 20 gusting 22 7.8
2020-Jan-21 09:15 119 16 gusting 26 7.8
2020-Jan-21 09:10 118 13 gusting 27 7.8
2020-Jan-21 09:05 121 15 gusting 27 7.8
2020-Jan-21 09:00 125 17 gusting 20 7.8
2020-Jan-21 08:55 128 17 gusting 22 7.8
2020-Jan-21 08:50 122 18 gusting 24 7.8
2020-Jan-21 08:45 123 17 gusting 30 7.8
2020-Jan-21 08:40 119 17 gusting 22 7.8
2020-Jan-21 08:35 135 14 gusting 25 7.8
2020-Jan-21 08:30 131 13 gusting 24 7.8
2020-Jan-21 08:25 122 13 gusting 24 7.8
2020-Jan-21 08:20 133 14 gusting 15 7.8
2020-Jan-21 08:15 128 14 gusting 20 7.8
2020-Jan-21 08:10 129 15 gusting 19 7.8
2020-Jan-21 08:05 127 15 gusting 19 7.8
2020-Jan-21 08:00 129 15 gusting 21 7.8
2020-Jan-21 07:55 122 15 gusting 21 7.8
2020-Jan-21 07:50 132 15 gusting 20 7.8
2020-Jan-21 07:45 141 15 gusting 25 7.8
2020-Jan-21 07:40 132 15 gusting 19 7.8
2020-Jan-21 07:35 131 17 gusting 21 7.8
2020-Jan-21 07:30 147 19 gusting 27 7.8
2020-Jan-21 07:25 129 17 gusting 28 7.8
2020-Jan-21 07:20 125 17 gusting 31 7.8
2020-Jan-21 07:15 127 15 gusting 24 7.8
2020-Jan-21 07:10 130 15 gusting 24 7.8
2020-Jan-21 07:05 117 14 gusting 27 7.8
2020-Jan-21 07:00 120 14 gusting 27 7.8
2020-Jan-21 06:55 128 14 gusting 19 7.8
2020-Jan-21 06:50 133 14 gusting 19 7.8
2020-Jan-21 06:45 128 15 gusting 19 7.8
2020-Jan-21 06:40 124 15 gusting 20 7.8
2020-Jan-21 06:35 130 14 gusting 30 7.8
2020-Jan-21 06:30 125 13 gusting 30 7.8
2020-Jan-21 06:25 124 16 gusting 19 7.8
2020-Jan-21 06:20 121 18 gusting 25 7.8
2020-Jan-21 06:15 120 15 gusting 26 7.8
2020-Jan-21 06:10 122 13 gusting 25 7.8
2020-Jan-21 06:05 121 13 gusting 25 7.8
2020-Jan-21 06:00 125 13 gusting 19 7.8
2020-Jan-21 05:55 116 15 gusting 21 7.8
2020-Jan-21 05:50 118 15 gusting 21 7.2
2020-Jan-21 05:45 113 15 gusting 26 7.2
2020-Jan-21 05:40 122 15 gusting 26 7.2
2020-Jan-21 05:35 113 14 gusting 24 7.2
2020-Jan-21 05:30 114 14 gusting 26 7.2
2020-Jan-21 05:25 128 16 gusting 26 7.8
2020-Jan-21 05:20 119 18 gusting 25 7.8
2020-Jan-21 05:15 128 14 gusting 25 7.8
2020-Jan-21 05:10 115 13 gusting 26 7.8
2020-Jan-21 05:05 114 13 gusting 20 7.8
2020-Jan-21 05:00 105 14 gusting 18 7.8
2020-Jan-21 04:55 107 15 gusting 22 7.8
2020-Jan-21 04:50 109 15 gusting 22 7.8
2020-Jan-21 04:45 105 15 gusting 22 7.8
2020-Jan-21 04:40 110 15 gusting 30 7.8
2020-Jan-21 04:35 111 15 gusting 26 7.8
2020-Jan-21 04:30 114 14 gusting 26 7.8
2020-Jan-21 04:25 118 15 gusting 19 7.8
2020-Jan-21 04:20 117 15 gusting 24 7.8
2020-Jan-21 04:15 117 15 gusting 20 7.2
2020-Jan-21 04:10 120 15 gusting 20 7.2
2020-Jan-21 04:05 114 15 gusting 20 7.2
2020-Jan-21 04:00 117 14 gusting 25 7.2
2020-Jan-21 03:55 119 14 gusting 25 7.2
2020-Jan-21 03:50 116 15 gusting 25 7.2
2020-Jan-21 03:45 117 15 gusting 25 7.2
2020-Jan-21 03:40 118 15 gusting 22 7.2
2020-Jan-21 03:35 118 15 gusting 25 7.2
2020-Jan-21 03:30 122 14 gusting 25 7.2
2020-Jan-21 03:25 127 13 gusting 28 7.2
2020-Jan-21 03:20 124 13 gusting 20 7.2
2020-Jan-21 03:15 119 13 gusting 19 7.2
2020-Jan-21 03:10 113 14 gusting 21 7.2
2020-Jan-21 03:05 111 15 gusting 26 7.2
2020-Jan-21 03:00 111 17 gusting 24 7.2
2020-Jan-21 02:55 111 17 gusting 24 7.2
2020-Jan-21 02:50 108 17 gusting 25 7.2
2020-Jan-21 02:45 113 18 gusting 20 7.2
2020-Jan-21 02:40 115 18 gusting 25 7.2
2020-Jan-21 02:35 117 18 gusting 24 7.2
2020-Jan-21 02:30 115 18 gusting 25 7.2
2020-Jan-21 02:25 115 18 gusting 25 7.2
2020-Jan-21 02:20 112 19 gusting 26 7.2
2020-Jan-21 02:15 106 19 gusting 27 7.2
2020-Jan-21 02:10 114 18 gusting 27 6.7
2020-Jan-21 02:05 116 19 gusting 25 6.7
2020-Jan-21 02:00 107 20 gusting 26 6.7
2020-Jan-21 01:55 113 20 gusting 32 6.7
2020-Jan-21 01:50 114 20 gusting 30 7.2
2020-Jan-21 01:45 118 19 gusting 33 7.2
2020-Jan-21 01:40 114 18 gusting 33 7.2
2020-Jan-21 01:35 116 19 gusting 31 7.2
2020-Jan-21 01:30 109 19 gusting 30 7.2
2020-Jan-21 01:25 108 18 gusting 30 7.2
2020-Jan-21 01:20 108 18 gusting 33 7.2
2020-Jan-21 01:15 102 18 gusting 26 7.2
2020-Jan-21 01:10 101 18 gusting 30 7.2
2020-Jan-21 01:05 099 19 gusting 30 7.2
2020-Jan-21 01:00 096 20 gusting 33 7.2
2020-Jan-21 00:55 099 19 gusting 33 7.2
2020-Jan-21 00:50 102 19 gusting 30 7.2
2020-Jan-21 00:45 101 18 gusting 28 7.2
2020-Jan-21 00:40 110 18 gusting 26 7.2
2020-Jan-21 00:35 084 17 gusting 26 7.2
2020-Jan-21 00:30 080 17 gusting 25 7.2
2020-Jan-21 00:25 091 17 gusting 27 7.2
2020-Jan-21 00:20 099 18 gusting 27 7.2
2020-Jan-21 00:15 089 18 gusting 25 7.2
2020-Jan-21 00:10 102 18 gusting 27 7.2
2020-Jan-21 00:05 096 17 gusting 30 7.2
2020-Jan-21 00:00 104 17 gusting 25 7.2
2020-Jan-20 23:55 093 18 gusting 25 7.2
2020-Jan-20 23:50 105 19 gusting 28 7.2
2020-Jan-20 23:45 104 19 gusting 28 7.2
2020-Jan-20 23:40 105 19 gusting 30 7.2
2020-Jan-20 23:35 107 19 gusting 30 7.2
2020-Jan-20 23:30 106 19 gusting 30 7.2
2020-Jan-20 23:25 105 18 gusting 26 7.2
2020-Jan-20 23:20 100 18 gusting 30 7.2
2020-Jan-20 23:15 100 18 gusting 27 7.2
2020-Jan-20 23:10 111 18 gusting 28 7.2
2020-Jan-20 23:05 098 19 gusting 25 7.2
2020-Jan-20 23:00 095 19 gusting 26 7.2
2020-Jan-20 22:55 101 19 gusting 33 7.2
2020-Jan-20 22:50 092 19 gusting 33 7.2
2020-Jan-20 22:45 096 17 gusting 28 7.2
2020-Jan-20 22:40 093 17 gusting 26 7.2
2020-Jan-20 22:35 107 17 gusting 27 7.2
2020-Jan-20 22:30 094 17 gusting 27 7.2
2020-Jan-20 22:25 106 19 gusting 26 7.2
2020-Jan-20 22:20 105 20 gusting 27 7.2
2020-Jan-20 22:15 108 20 gusting 27 7.2
2020-Jan-20 22:10 102 20 gusting 32 7.2
2020-Jan-20 22:05 114 17 gusting 27 7.2
2020-Jan-20 22:00 090 15 gusting 33 7.2
2020-Jan-20 21:55 108 18 gusting 33 7.2
2020-Jan-20 21:50 093 19 gusting 25 7.2
2020-Jan-20 21:45 104 18 gusting 27 7.2
2020-Jan-20 21:40 098 17 gusting 27 7.2
2020-Jan-20 21:35 102 18 gusting 27 7.2
2020-Jan-20 21:30 103 19 gusting 25 6.7
2020-Jan-20 21:25 094 20 gusting 27 6.7
2020-Jan-20 21:20 107 20 gusting 30 6.7
2020-Jan-20 21:15 101 20 gusting 28 6.7
2020-Jan-20 21:10 097 20 gusting 30 7.2
2020-Jan-20 21:05 095 19 gusting 30 7.2
2020-Jan-20 21:00 097 19 gusting 34 7.2
2020-Jan-20 20:55 098 19 gusting 33 7.2
2020-Jan-20 20:50 090 19 gusting 32 7.2
2020-Jan-20 20:45 092 20 gusting 28 7.2
2020-Jan-20 20:40 095 21 gusting 28 7.2
2020-Jan-20 20:35 100 20 gusting 28 7.2
2020-Jan-20 20:30 087 20 gusting 34 7.2
2020-Jan-20 20:25 091 18 gusting 34 7.2
2020-Jan-20 20:20 100 18 gusting 30 7.2
2020-Jan-20 20:15 098 19 gusting 27 7.2
2020-Jan-20 20:10 096 19 gusting 26 7.2
2020-Jan-20 20:05 097 19 gusting 34 7.2
2020-Jan-20 20:00 083 19 gusting 34 6.7
2020-Jan-20 19:55 092 18 gusting 30 6.7
2020-Jan-20 19:50 082 17 gusting 30 6.7
2020-Jan-20 19:45 098 17 gusting 26 6.7
2020-Jan-20 19:40 094 18 gusting 24 6.7
2020-Jan-20 19:35 100 19 gusting 27 6.7
2020-Jan-20 19:30 097 20 gusting 27 6.7
2020-Jan-20 19:25 091 19 gusting 26 6.7
2020-Jan-20 19:20 086 19 gusting 33 6.7
2020-Jan-20 19:15 090 19 gusting 33 6.7
2020-Jan-20 19:10 094 18 gusting 31 6.7
2020-Jan-20 19:05 097 20 gusting 27 6.7
2020-Jan-20 19:00 096 21 gusting 32 6.7
2020-Jan-20 18:55 089 20 gusting 32 6.7
2020-Jan-20 18:50 091 20 gusting 31 6.7
2020-Jan-20 18:45 085 19 gusting 32 6.7
2020-Jan-20 18:40 102 19 gusting 32 6.7
2020-Jan-20 18:35 096 20 gusting 32 6.7
2020-Jan-20 18:30 098 21 gusting 28 6.7
2020-Jan-20 18:25 097 20 gusting 32 6.7
2020-Jan-20 18:20 090 20 gusting 35 6.7
2020-Jan-20 18:15 098 19 gusting 34 6.7
2020-Jan-20 18:10 107 19 gusting 34 6.7
2020-Jan-20 18:05 105 19 gusting 32 6.7
2020-Jan-20 18:00 097 19 gusting 26 6.7
2020-Jan-20 17:55 100 19 gusting 27 6.7
2020-Jan-20 17:50 101 20 gusting 27 6.7
2020-Jan-20 17:45 106 19 gusting 27 6.7
2020-Jan-20 17:40 104 19 gusting 34 6.7
2020-Jan-20 17:35 101 19 gusting 28 6.7
2020-Jan-20 17:30 096 19 gusting 28 6.7
2020-Jan-20 17:25 098 19 gusting 24 6.7
2020-Jan-20 17:20 095 19 gusting 30 6.7
2020-Jan-20 17:15 097 19 gusting 28 6.7
2020-Jan-20 17:10 097 18 gusting 28 6.7
2020-Jan-20 17:05 089 19 gusting 33 6.7
2020-Jan-20 17:00 098 19 gusting 30 6.7
2020-Jan-20 16:55 100 20 gusting 30 6.7
2020-Jan-20 16:50 095 20 gusting 26 6.7
2020-Jan-20 16:45 095 19 gusting 28 6.7
2020-Jan-20 16:40 101 19 gusting 30 6.7
2020-Jan-20 16:35 098 19 gusting 35 6.7
2020-Jan-20 16:30 081 18 gusting 31 6.7
2020-Jan-20 16:25 099 19 gusting 24 6.7
2020-Jan-20 16:20 099 19 gusting 27 6.7
2020-Jan-20 16:15 089 19 gusting 26 6.7
2020-Jan-20 16:10 093 19 gusting 27 6.7
2020-Jan-20 16:05 088 19 gusting 26 6.7
2020-Jan-20 16:00 090 19 gusting 27 6.7
2020-Jan-20 15:55 088 19 gusting 27 6.7
2020-Jan-20 15:50 082 19 gusting 28 6.7
2020-Jan-20 15:45 098 19 gusting 28 6.7
2020-Jan-20 15:40 099 19 gusting 28 6.7
2020-Jan-20 15:35 105 17 gusting 32 6.7
2020-Jan-20 15:30 098 17 gusting 32 6.7
2020-Jan-20 15:25 096 15 gusting 30 6.7
2020-Jan-20 15:20 098 14 gusting 26 6.7
2020-Jan-20 15:15 099 15 gusting 24 6.7
2020-Jan-20 15:10 081 15 gusting 24 6.7
2020-Jan-20 15:05 088 15 gusting 24 6.7
2020-Jan-20 15:00 088 15 gusting 26 6.7